[[{"header":{"parameterUnit":"m.s-1","parameterCategory":1,"la1":30.2991,"la2":30.254,"lo1":-89.0895,"lo2":-89.0444,"dy":0.0017,"dx":0.0017,"nx":28,"ny":28,"refTime":"2024-12-20T09:00:00:Z","depth":0,"parameterNumber":2,"parameterNumberName":"U-component_of_WINDS"},"data":[0,0,0,0,0,0,0,0,0,0,0,0,0,0,0,0,0,0,0,0,0,0,0,0,0,0,0,0,0,0,0,0,0,0,0,0,0,0,0,0,0,0,0,0,0,0,0,0,0,0,0,0,0,0,0,0,0,0,-1.8147,-1.8148,0,-1.8228,-1.8229,-1.823,-1.82,-1.8199,-1.8197,-1.8195,-1.8277,-1.8281,-1.8285,0,0,0,0,0,0,0,0,0,0,0,0,0,-1.7964,-1.7967,-1.8147,-1.8148,-1.8149,-1.8228,-1.8229,-1.823,-1.8201,-1.8199,-1.8196,-1.8194,-1.8276,-1.8281,-1.8285,0,0,0,0,0,0,0,0,0,0,0,0,0,-1.8044,-1.7969,-1.8147,-1.8144,-1.8144,-1.8228,-1.8229,-1.8231,-1.8201,-1.8198,-1.8196,-1.8193,-1.8274,-1.828,-1.8286,-1.8377,0,0,-1.8304,-1.8306,0,0,0,0,0,0,0,0,-1.804,-1.8051,-1.8143,-1.8144,-1.8145,-1.8201,-1.8195,-1.828,-1.8202,-1.818,-1.8195,-1.8192,-1.8254,-1.8261,-1.8283,-1.8381,-1.8384,-1.8304,-1.8308,-1.831,-1.8312,0,0,0,0,0,0,0,-1.8034,-1.8047,-1.8179,-1.8145,-1.8146,-1.8138,-1.8146,-1.8211,-1.8231,-1.8181,-1.8179,-1.8189,-1.8254,-1.8277,-1.8284,-1.8385,-1.8304,-1.8309,-1.8313,-1.8315,-1.856,-1.8563,0,0,0,0,0,0,-1.8028,-1.8043,-1.8176,-1.8181,-1.8084,-1.8143,-1.8152,-1.8186,-1.823,-1.8235,-1.8192,-1.8188,-1.8269,-1.8278,-1.8287,-1.8396,-1.831,-1.8316,-1.8319,-1.8557,-1.8561,-1.8564,0,0,0,0,0,0,-1.8025,-1.8041,-1.8173,-1.8112,-1.8128,-1.8149,-1.8187,-1.8189,-1.8212,-1.8238,-1.8242,-1.8212,-1.8267,-1.8279,-1.8354,-1.8398,-1.8318,-1.8324,-1.8554,-1.8558,-1.8562,-1.8615,0,0,0,0,0,0,-1.8019,-1.8039,-1.8075,-1.8113,-1.8131,-1.824,-1.819,-1.8193,-1.8222,-1.8218,-1.8258,-1.8262,-1.8265,-1.8346,-1.836,-1.8405,-1.8328,-1.855,-1.8556,-1.8561,-1.8609,-1.8621,-1.863,0,0,0,0,0,-1.8013,-1.8087,-1.8077,-1.8093,-1.8176,-1.8243,-1.8253,-1.8256,-1.8226,-1.8262,-1.8278,-1.8261,-1.8391,-1.8354,-1.837,-1.8417,-1.8547,-1.8554,-1.8561,-1.8605,-1.8618,-1.863,0,0,0,0,0,0,-1.8054,-1.8092,-1.8081,-1.8169,-1.8203,-1.8238,-1.8283,-1.8271,-1.8314,-1.8308,-1.8309,-1.8318,-1.8396,-1.8414,-1.8372,-1.8506,-1.8464,-1.8475,-1.8492,-1.8506,-1.8516,-1.851,-1.8333,0,0,0,0,0,-1.8073,-1.8124,-1.8154,-1.8229,-1.8246,-1.8262,-1.8291,-1.829,-1.8325,-1.8339,-1.8361,-1.8395,-1.8443,-1.8475,-1.8521,-1.8611,-1.8619,-1.8651,-1.8662,-1.867,-1.8679,-1.8727,-1.8742,-1.8586,-1.8586,-1.8586,0,0,-1.8113,-1.814,-1.8173,-1.8238,-1.8264,-1.8316,-1.8274,-1.8331,-1.837,-1.8347,-1.842,-1.8437,-1.8475,-1.8558,-1.8595,-1.8575,-1.8723,-1.8679,-1.8685,-1.869,-1.8735,-1.875,-1.8763,-1.8591,-1.859,-1.8589,0,0,-1.8214,-1.8239,-1.8304,-1.8331,-1.837,-1.838,-1.8395,-1.8431,-1.8442,-1.8515,-1.8498,-1.8543,-1.8627,-1.8655,-1.8679,-1.8788,-1.8773,-1.8803,-1.8858,-1.8904,-1.8916,-1.8927,-1.8966,-1.8979,-1.8811,-1.8811,-1.8812,0,-1.8259,-1.8338,-1.8339,-1.8398,-1.8426,-1.8407,-1.8472,-1.8498,-1.8551,-1.857,-1.8547,-1.865,-1.8675,-1.8763,-1.8789,-1.881,-1.8827,-1.8799,-1.8915,-1.8926,-1.8936,-1.8972,-1.8987,-1.8815,-1.8814,-1.8814,-1.8814,0,-1.8391,-1.8446,-1.8493,-1.8545,-1.8578,-1.864,-1.8649,-1.8683,-1.8678,-1.869,-1.8763,-1.8791,-1.8842,-1.8863,-1.8859,-1.8951,-1.8937,-1.8914,-1.8872,-1.8954,-1.8988,-1.9002,-1.882,-1.8818,-1.8817,-1.8817,0,0,-1.8521,-1.8571,-1.8588,-1.8611,-1.8652,-1.8695,-1.8754,-1.8804,-1.8833,-1.8869,-1.8919,-1.8989,-1.8968,-1.8996,-1.8995,-1.9035,-1.9119,-1.9007,-1.9008,-1.9027,-1.922,-1.9238,-1.9254,-1.9109,-1.9111,-1.9113,-1.9217,0,-1.8625,-1.8731,-1.8733,-1.883,-1.888,-1.8862,-1.8913,-1.8944,-1.8956,-1.8999,-1.9011,-1.9061,-1.9029,-1.9046,-1.9085,-1.91,-1.9158,-1.9093,-1.9155,-1.9157,-1.9147,-1.9272,-1.9291,-1.9388,-1.923,-1.9233,-1.9234,0,-1.8761,-1.8802,-1.8904,-1.8937,-1.8958,-1.9005,-1.905,-1.9092,-1.9125,-1.913,-1.9161,-1.9153,-1.9213,-1.9168,-1.9249,-1.9205,-1.923,-1.9241,-1.9245,-1.9251,-1.9201,-1.9282,-1.9418,-1.9433,-1.9256,-1.9254,-1.9252,0,-1.8846,-1.8926,-1.8997,-1.9017,-1.9057,-1.909,-1.9108,-1.9139,-1.9168,-1.9207,-1.9226,-1.9271,-1.9296,-1.933,-1.9334,-1.9301,-1.9416,-1.9372,-1.9422,-1.9422,-1.9448,-1.9447,-1.9591,-1.9463,-1.9463,-1.9463,-1.9463,0,-1.8963,-1.9026,-1.9036,-1.908,-1.9149,-1.9149,-1.9218,-1.9233,-1.926,-1.9306,-1.9292,-1.9335,-1.9337,-1.9381,-1.9384,-1.9451,-1.9462,-1.9468,-1.9468,-1.947,-1.9469,-1.9487,-1.948,-1.9467,-1.9466,-1.9465,-1.9465,0,-1.907,-1.9079,-1.9156,-1.9187,-1.9196,-1.9246,-1.9272,-1.9313,-1.9323,-1.938,-1.9394,-1.9409,-1.9459,-1.9466,-1.9525,-1.9527,-1.9607,-1.96,-1.9597,-1.9596,-1.9646,-1.9641,-1.9807,-1.9828,-1.9686,-1.9688,-1.9689,0,-1.9144,-1.9192,-1.9228,-1.9258,-1.9278,-1.9326,-1.9356,-1.9357,-1.9388,-1.9428,-1.9465,-1.9514,-1.9553,-1.9634,-1.965,-1.9694,-1.9688,-1.9743,-1.9695,-1.9695,-1.9689,-1.9687,-1.9691,-1.9753,-1.9755,-1.9756,-1.9757,0,-1.9275,-1.9276,-1.932,-1.9365,-1.9401,-1.9436,-1.9469,-1.9494,-1.9499,-1.9534,-1.9586,-1.9616,-1.9676,-1.9725,-1.9768,-1.9786,-1.9772,-1.9771,-1.9785,-1.9788,-1.9784,-1.9787,-1.9622,-1.9768,-1.9767,-1.9766,-1.9766,-1.9765,-1.9368,-1.9409,-1.9441,-1.9489,-1.9514,-1.9545,-1.9585,-1.9599,-1.9642,-1.9691,-1.9689,-1.9745,-1.9775,-1.9833,-1.9853,-1.9896,-1.9878,-1.9899,-1.9904,-1.9909,-1.9914,-1.9776,-1.9904,-1.9904,-1.9904,-1.9903,-1.9903,0,-1.9498,-1.9517,-1.9561,-1.9608,-1.9646,-1.9629,-1.9664,-1.9697,-1.9747,-1.9776,-1.9815,-1.9873,-1.992,-1.9938,-1.9983,-2.0014,-2.0009,-2.0026,-2.0024,-2.0028,-1.9928,-1.9911,-2.0029,-2.0029,-2.0029,-2.0029,-2.0029,-2.0029,-1.957,-1.9639,-1.9644,-1.9725,-1.9743,-1.9798,-1.982,-1.9848,-1.9871,-1.9937,-1.9975,-1.9987,-2.0012,-2.0058,-2.0099,-2.0103,-2.0121,-2.0141,-2.0142,-2.0048,-2.0035,-2.0023,-2.0008,-2.0144,-2.0144,-2.0239,-2.0239,-2.024]},{"header":{"parameterUnit":"m.s-1","parameterCategory":1,"la1":30.2991,"la2":30.254,"lo1":-89.0895,"lo2":-89.0444,"dy":0.0017,"dx":0.0017,"nx":28,"ny":28,"refTime":"2024-12-20T09:00:00:Z","depth":0,"parameterNumber":3,"parameterNumberName":"V-component_of_WINDS"},"data":[0,0,0,0,0,0,0,0,0,0,0,0,0,0,0,0,0,0,0,0,0,0,0,0,0,0,0,0,0,0,0,0,0,0,0,0,0,0,0,0,0,0,0,0,0,0,0,0,0,0,0,0,0,0,0,0,0,0,-7.6411,-7.6413,0,-7.6559,-7.656,-7.6562,-7.6484,-7.648,-7.6477,-7.6473,-7.6617,-7.6625,-7.6632,0,0,0,0,0,0,0,0,0,0,0,0,0,-7.6056,-7.6063,-7.6411,-7.6413,-7.6415,-7.6558,-7.656,-7.6562,-7.6485,-7.648,-7.6476,-7.6471,-7.6615,-7.6624,-7.6633,0,0,0,0,0,0,0,0,0,0,0,0,0,-7.6207,-7.6065,-7.6411,-7.6394,-7.6394,-7.6558,-7.656,-7.6563,-7.6486,-7.648,-7.6474,-7.6469,-7.6612,-7.6623,-7.6634,-7.6821,0,0,-7.6668,-7.6673,0,0,0,0,0,0,0,0,-7.6199,-7.6221,-7.6395,-7.6395,-7.6396,-7.6497,-7.6488,-7.6649,-7.6488,-7.6451,-7.6473,-7.6466,-7.6582,-7.6595,-7.6635,-7.6828,-7.6834,-7.6669,-7.6676,-7.6681,-7.6684,0,0,0,0,0,0,0,-7.6189,-7.6214,-7.6469,-7.6397,-7.6398,-7.6376,-7.6391,-7.6518,-7.6547,-7.6454,-7.6448,-7.6467,-7.6581,-7.6625,-7.6638,-7.6836,-7.6669,-7.6679,-7.6686,-7.669,-7.7188,-7.7194,0,0,0,0,0,0,-7.618,-7.6206,-7.6465,-7.6474,-7.6281,-7.6388,-7.6404,-7.647,-7.6546,-7.6552,-7.6472,-7.6463,-7.6608,-7.6625,-7.6643,-7.6866,-7.6681,-7.6691,-7.6698,-7.7181,-7.7189,-7.7196,0,0,0,0,0,0,-7.6173,-7.6204,-7.6459,-7.6338,-7.6369,-7.64,-7.6475,-7.6476,-7.652,-7.656,-7.6564,-7.6512,-7.6604,-7.6627,-7.6778,-7.687,-7.6697,-7.6707,-7.7174,-7.7184,-7.7193,-7.7315,0,0,0,0,0,0,-7.6163,-7.6202,-7.6275,-7.6341,-7.6376,-7.6594,-7.6481,-7.6484,-7.6541,-7.653,-7.6599,-7.6604,-7.6602,-7.6761,-7.6789,-7.6883,-7.6716,-7.7166,-7.7178,-7.719,-7.7303,-7.7328,-7.7349,0,0,0,0,0,-7.615,-7.6303,-7.6279,-7.6311,-7.6469,-7.6599,-7.6619,-7.6615,-7.6549,-7.6621,-7.6646,-7.6602,-7.6856,-7.6777,-7.6808,-7.6906,-7.716,-7.7175,-7.7189,-7.7293,-7.7323,-7.7349,0,0,0,0,0,0,-7.6245,-7.6311,-7.6286,-7.6464,-7.6527,-7.6586,-7.6678,-7.6647,-7.6728,-7.6715,-7.6704,-7.672,-7.6876,-7.6906,-7.6818,-7.709,-7.6997,-7.7018,-7.7066,-7.7095,-7.7117,-7.7107,-7.6725,0,0,0,0,0,-7.6287,-7.639,-7.6441,-7.6593,-7.6626,-7.6647,-7.6703,-7.6695,-7.6758,-7.6784,-7.682,-7.6881,-7.6974,-7.7036,-7.7124,-7.7307,-7.7319,-7.7389,-7.7412,-7.7431,-7.7449,-7.7546,-7.7578,-7.7244,-7.7244,-7.7244,0,0,-7.6375,-7.6423,-7.6488,-7.6614,-7.6661,-7.6765,-7.667,-7.6784,-7.686,-7.68,-7.6945,-7.6974,-7.7041,-7.7208,-7.7283,-7.7238,-7.7544,-7.745,-7.7464,-7.7473,-7.7564,-7.7596,-7.7624,-7.7254,-7.7252,-7.7251,0,0,-7.6587,-7.6635,-7.6767,-7.6816,-7.689,-7.6903,-7.6934,-7.6998,-7.7015,-7.7161,-7.7117,-7.7206,-7.7368,-7.7418,-7.7464,-7.7694,-7.7656,-7.7723,-7.7843,-7.7938,-7.7964,-7.7987,-7.8068,-7.8097,-7.7741,-7.7741,-7.7742,0,-7.6686,-7.6843,-7.6838,-7.6956,-7.7011,-7.6963,-7.7095,-7.7143,-7.7241,-7.7279,-7.7227,-7.7428,-7.747,-7.7647,-7.7704,-7.7743,-7.7777,-7.7715,-7.7961,-7.7984,-7.8006,-7.8083,-7.8113,-7.7749,-7.7748,-7.7747,-7.7747,0,-7.696,-7.707,-7.7167,-7.7265,-7.7331,-7.7455,-7.7466,-7.7534,-7.7519,-7.7536,-7.7683,-7.7732,-7.7829,-7.787,-7.7856,-7.8045,-7.8014,-7.7962,-7.7868,-7.8045,-7.8117,-7.8147,-7.776,-7.7757,-7.7755,-7.7753,0,0,-7.7237,-7.733,-7.7366,-7.7409,-7.7486,-7.757,-7.769,-7.7787,-7.7844,-7.7913,-7.8012,-7.815,-7.8102,-7.8154,-7.8145,-7.8229,-7.8406,-7.8166,-7.8167,-7.8208,-7.8615,-7.8653,-7.8688,-7.8381,-7.8386,-7.8391,-7.8609,0,-7.7454,-7.7668,-7.7666,-7.7863,-7.7963,-7.7919,-7.8024,-7.8081,-7.81,-7.8185,-7.8205,-7.8303,-7.8232,-7.8264,-7.8344,-7.8367,-7.8487,-7.8352,-7.8471,-7.8476,-7.8456,-7.8726,-7.8767,-7.8971,-7.8637,-7.8642,-7.8645,0,-7.7736,-7.7816,-7.8024,-7.8085,-7.8127,-7.8222,-7.8309,-7.8393,-7.8455,-7.8463,-7.8522,-7.85,-7.862,-7.8523,-7.8687,-7.8595,-7.8643,-7.8662,-7.8669,-7.868,-7.8571,-7.8742,-7.9036,-7.9066,-7.869,-7.8686,-7.8683,0,-7.7916,-7.8075,-7.822,-7.8258,-7.8334,-7.8401,-7.8435,-7.8493,-7.855,-7.8626,-7.8663,-7.875,-7.8798,-7.8866,-7.8866,-7.8796,-7.9032,-7.8935,-7.904,-7.904,-7.9091,-7.9088,-7.9396,-7.9124,-7.9123,-7.9123,-7.9122,0,-7.8158,-7.8287,-7.8301,-7.839,-7.8532,-7.8527,-7.8667,-7.8694,-7.8746,-7.8837,-7.8803,-7.8889,-7.8886,-7.8972,-7.8973,-7.9108,-7.913,-7.9138,-7.9137,-7.9141,-7.914,-7.9172,-7.9158,-7.9131,-7.9129,-7.9128,-7.9126,0,-7.8383,-7.8398,-7.8553,-7.8612,-7.863,-7.8732,-7.8781,-7.8864,-7.888,-7.8996,-7.9023,-7.9046,-7.9147,-7.9154,-7.927,-7.927,-7.9433,-7.9417,-7.9413,-7.941,-7.9514,-7.9504,-7.9852,-7.9897,-7.9597,-7.96,-7.9603,0,-7.8536,-7.8635,-7.8704,-7.8764,-7.8803,-7.89,-7.8959,-7.8957,-7.9019,-7.9097,-7.9171,-7.9268,-7.9346,-7.9507,-7.9533,-7.9621,-7.9605,-7.9721,-7.9618,-7.9619,-7.9606,-7.96,-7.9609,-7.9741,-7.9745,-7.9747,-7.975,0,-7.8807,-7.8809,-7.8897,-7.8987,-7.9059,-7.9129,-7.9195,-7.9245,-7.925,-7.9322,-7.9425,-7.9485,-7.9603,-7.9699,-7.9785,-7.9817,-7.9784,-7.9782,-7.9811,-7.9816,-7.9809,-7.9813,-7.9467,-7.9774,-7.9771,-7.977,-7.9768,-7.9767,-7.9,-7.9084,-7.9147,-7.9245,-7.9294,-7.9356,-7.9437,-7.9463,-7.955,-7.9648,-7.964,-7.9754,-7.9812,-7.9924,-7.9963,-8.0049,-8.001,-8.0052,-8.0062,-8.0072,-8.0083,-7.9796,-8.0065,-8.0064,-8.0064,-8.0063,-8.0062,0,-7.9267,-7.9305,-7.9396,-7.9489,-7.9566,-7.953,-7.96,-7.9666,-7.9767,-7.9825,-7.9903,-8.002,-8.0113,-8.0146,-8.0236,-8.0299,-8.0286,-8.0322,-8.0317,-8.0325,-8.0114,-8.0079,-8.0331,-8.0331,-8.0331,-8.0331,-8.0331,-8.0331,-7.9416,-7.9557,-7.9567,-7.9731,-7.9767,-7.988,-7.9923,-7.9979,-8.0025,-8.0158,-8.0236,-8.0258,-8.0305,-8.0398,-8.048,-8.0487,-8.0521,-8.0565,-8.0565,-8.0367,-8.034,-8.0314,-8.0282,-8.0572,-8.0573,-8.0769,-8.0771,-8.0772]}]]